Вернуться в каталог

ONEWEB-0324

АктивенСвязьPO
NORAD 49193·PAYLOAD·🇬🇧 United Kingdom

Запущен Sep 14, 2021 с Baikonur Cosmodrome

Loading…

Ближайшие Пролёты (ближайшие 24 часа)

TLE

СвежийSource: CelesTrak SupGP

Эпоха: Sep 14, 2026, 12:59 UTC

1 49193C 21083H   26257.54150880  .00002135  00000+0  54209-2 0  2572
2 49193  87.9174 317.7023 0001765 100.0526  12.8483 13.18685683    16

Отслеживайте ONEWEB-0324 в реальном времени с AllMySat

Download on the App Store